Location: Perryvale
(54.4667°N, 113.3833°W)
Time: 00:27:19
(UTC+00:00)

Vanguard 1 - Pass Details

Date: 27 May 2024
Orbit: 652 x 3825 km, 34.2° (Epoch: 13 June)

Event Time Altitude Azimuth Distance (km) Brightness Sun altitude
Rises 05:00:29 0° 242° (WSW) 4,552 13.6 -7.6°
Reaches altitude 10° 05:03:29 10° 232° (SW) 3,935 13.1 -7.8°
Maximum altitude 05:12:37 31° 175° (S) 3,565 12.4 -8.6°
Drops below altitude 10° 05:26:54 10° 124° (SE) 6,222 13.6 -9.6°
Sets 05:33:21 0° 116° (ESE) 7,619 14.1 -10.1°
